RH
94 94 93 88 88 84 81 82 70 65 60 56 50 51 53 59 64 61 54 43 49 55
95 94 91 90 86 85 82 72 64 62 59 50 49 50 55 56 50 45 44 50 47 56
94 92 89 85 84 80 74 60 61 57 47 46 46 44 43 39 38 39 44 50 48 52
94 88 86 83 76 68 56 51 44 41 42 40 41 43 38 38 34 37 44 47 48 51
86 83 81 75 66 52 48 42 38 34 34 34 34 33 31 30 34 38 42 45 51 51
72 65 62 52 46 44 38 35 32 32 34 32 32 30 32 33 37 41 45 51 55 55
58 51 44 35 35 36 35 36 36 31 30 33 35 38 42 47 50 51 53 56 57 56
48 43 37 40 42 39 35 34 35 33 33 39 41 42 55 57 57 59 60 59 57 58
43 46 49 48 45 45 48 48 50 57 55 53 49 55 59 61 62 59 61 63 64 60
51 54 56 57 57 63 61 62 70 64 54 56 57 56 56 62 60 63 65 66 65 60
74 79 79 77 78 69 74 70 62 46 43 56 51 52 52 59 65 68 68 68 68 71
88 98 92 94 95 84 75 57 42 44 42 52 56 48 48 62 67 62 65 66 69 74
100 100 97 75 74 68 62 52 46 41 38 42 43 43 38 51 64 64 64 69 73 69
99 87 62 59 55 53 46 43 42 42 43 48 47 48 41 44 59 64 75 78 72 70
Wind_Speed
12 9 8 12 12 8 9 7 9 8 8 8 9 9 7 6 6 4 4 6 4 3
10 12 12 13 11 9 9 9 9 9 9 8 9 8 7 6 7 4 3 3 4 2
7 11 12 13 14 12 11 12 12 11 10 9 8 8 7 5 6 6 3 2 3 2
7 9 10 10 12 13 14 14 13 12 10 10 8 7 7 6 6 6 5 3 2 3
12 10 11 12 13 13 14 13 13 13 12 10 8 6 7 5 5 6 5 3 2 3
11 12 12 11 13 13 14 14 13 12 12 10 7 6 6 6 5 5 3 1 2 3
11 11 12 14 14 13 13 14 13 11 10 9 7 6 6 5 5 4 4 3 2 3
11 12 12 13 13 13 13 13 13 13 10 8 6 4 5 5 5 5 3 2 3 3
13 13 14 13 14 13 13 13 13 11 8 7 5 9 10 7 5 3 3 3 5 5
14 15 14 14 15 13 11 11 10 9 7 7 5 9 9 9 4 3 3 3 4 4
14 15 15 14 11 11 9 8 7 6 6 6 5 8 7 7 4 3 3 3 3 4
14 13 10 11 10 9 9 6 5 4 5 6 4 6 4 5 1 1 3 4 5 5
12 11 10 8 10 5 5 5 4 4 4 6 4 2 1 2 3 3 3 4 5 10
10 9 8 7 5 4 5 5 4 5 5 5 4 4 5 7 2 2 2 3 4 5
Wind_Direction
169 165 158 162 154 161 158 156 149 144 142 145 128 122 124 114 112 121 124 126 129 109
153 152 152 144 145 146 141 140 139 143 141 137 125 127 128 126 110 108 120 144 123 128
155 144 145 144 145 147 141 147 146 140 137 130 122 129 126 122 118 120 124 133 135 118
121 130 131 143 143 146 145 150 147 139 137 126 125 133 127 125 126 134 124 125 166 187
132 142 137 151 145 147 145 146 139 135 127 123 127 136 127 122 128 130 126 169 210 237
138 141 136 137 134 139 139 134 129 126 123 125 123 119 106 113 116 93 109 83 272 283
135 134 138 132 131 130 129 121 114 102 99 99 108 105 102 108 94 98 68 26 317 317
120 119 120 115 113 114 109 103 100 97 93 95 92 101 108 94 84 66 43 343 333 333
109 105 104 101 102 98 93 92 96 98 120 111 116 125 104 97 82 55 28 341 346 344
96 96 95 95 86 85 87 95 92 103 122 119 139 124 98 88 75 56 11 6 353 342
94 89 91 92 96 97 97 96 118 128 152 136 126 115 106 98 79 50 2 334 320 301
92 86 91 96 100 95 107 143 148 143 112 113 128 137 122 125 135 296 316 315 308 299
83 87 89 119 108 142 142 140 105 95 114 133 135 198 356 136 210 304 312 301 289 313
83 99 97 99 120 136 107 95 101 90 67 73 78 7 342 354 113 277 300 300 316 306